Location: Carrer del Canonge
(41.4901°N, 2.2931°E)
Time: 04:57:48
(UTC+00:00)

Cosmos 1937 Rocket - Pass Details

Date: 18 September 2020
Orbit: 747 x 779 km, 74.0° (Epoch: 25 October)

Event Time Altitude Azimuth Distance (km) Brightness Sun altitude
Rises 18:51:40 0° 202° (SSW) 3,235 6.9 -11.5°
Reaches altitude 10° 18:54:03 10° 204° (SSW) 2,308 6.1 -11.9°
Maximum altitude 18:59:17 76° 290° (WNW) 792 3.7 -12.9°
Drops below altitude 10° 19:04:31 10° 17° (NNE) 2,302 6.0 -13.8°
Sets 19:06:54 0° 19° (NNE) 3,227 6.7 -14.2°
